Weather History for Bentonville, AR

Change the Weather History Date:

Monday, January 27, 2014

  Actual Average Record
Temperature  
Mean Temperature 24 °F -  
Max Temperature 33 °F 45 °F 66 °F (1970)
Min Temperature 15 °F 22 °F -2 °F (1963)
Degree Days  
Heating Degree Days 41    
Moisture  
Dew Point -3 °F    
Average Humidity 36    
Maximum Humidity 47    
Minimum Humidity 30    
Precipitation  
Precipitation 0.00 in - - ()
Sea Level Pressure  
Sea Level Pressure 30.28 in    
Wind  
Wind Speed 17 mph (NNE)    
Max Wind Speed 26 mph    
Max Gust Speed 36 mph    
Visibility 10 miles    
Events      
Averages and records for this station are not official NWS values.
T = Trace of Precipitation, MM = Missing Value Source: NWS Daily Summary

Daily Weather History Graph

Daily Weather History Graph

Search for Another Location

Airport:

Trip Planner

Search our weather history database for the weather conditions in past years. The results will help you decide how hot, cold, wet, or windy it might be!

Date:

Astronomy

Jan. 27, 2014 Rise Set
Actual Time 7:21 AM CST 5:37 PM CST
Civil Twilight 6:54 AM CST 6:05 PM CST
Nautical Twilight 6:23 AM CST 6:36 PM CST
Astronomical Twilight 5:52 AM CST 7:06 PM CST
Moon 4:02 AM CST (1/27) 2:26 PM CST (1/27)
Length of Visible Light 11h 10m
Length of Day
10h 16m
Waning Crescent, 14% of the Moon is Illuminated
Jan 27
Waning Crescent
Jan 30
New
Feb 6
First Quarter
Feb 14
Full
Feb 22
Last Quarter

Hourly Weather History & Observations

Time (CST) Temp. Windchill Dew Point Humidity Pressure Visibility Wind Dir Wind Speed Gust Speed Precip Events Conditions
12:15 AM 33.8 °F 21.0 °F 10.4 °F 38% 30.00 in 10.0 mi North 25.3 mph 32.2 mph N/A   Clear
12:35 AM 33.8 °F 23.2 °F 10.4 °F 38% 30.02 in 10.0 mi North 17.3 mph 27.6 mph N/A   Clear
12:55 AM 33.8 °F 22.8 °F 10.4 °F 38% 30.02 in 10.0 mi North 18.4 mph 28.8 mph N/A   Clear
1:15 AM 32.0 °F 21.6 °F 6.8 °F 35% 30.04 in 10.0 mi North 15.0 mph 28.8 mph N/A   Clear
1:35 AM 32.0 °F 18.9 °F 5.0 °F 32% 30.05 in 10.0 mi North 24.2 mph 29.9 mph N/A   Clear
1:55 AM 30.2 °F 15.9 °F 5.0 °F 34% 30.06 in 10.0 mi North 26.5 mph 32.2 mph N/A   Clear
2:15 AM 30.2 °F 18.5 °F 6.8 °F 37% 30.08 in 10.0 mi North 17.3 mph 28.8 mph N/A   Clear
2:35 AM 30.2 °F 19.8 °F 6.8 °F 37% 30.09 in 10.0 mi North 13.8 mph 24.2 mph N/A   Clear
2:55 AM 28.4 °F 15.4 °F 10.4 °F 47% 30.11 in 10.0 mi NNE 19.6 mph 29.9 mph N/A   Clear
3:15 AM 26.6 °F 13.8 °F 8.6 °F 47% 30.12 in 10.0 mi North 17.3 mph 27.6 mph N/A   Clear
3:35 AM 26.6 °F 13.4 °F 1.4 °F 34% 30.13 in 10.0 mi North 18.4 mph 26.5 mph N/A   Clear
3:55 AM 24.8 °F 11.1 °F 3.2 °F 40% 30.14 in 10.0 mi North 18.4 mph 26.5 mph N/A   Clear
4:15 AM 24.8 °F 9.6 °F -0.4 °F 34% 30.15 in 10.0 mi NNE 23.0 mph 35.7 mph N/A   Clear
4:35 AM 23.0 °F 9.6 °F -2.2 °F 33% 30.17 in 10.0 mi North 16.1 mph 21.9 mph N/A   Scattered Clouds
4:55 AM 23.0 °F 8.0 °F -0.4 °F 36% 30.19 in 10.0 mi NNE 20.7 mph 26.5 mph N/A   Overcast
5:15 AM 23.0 °F 8.7 °F -0.4 °F 36% 30.18 in 10.0 mi North 18.4 mph 26.5 mph N/A   Overcast
5:35 AM 23.0 °F 8.7 °F 1.4 °F 39% 30.20 in 10.0 mi NNE 18.4 mph 21.9 mph N/A   Overcast
5:55 AM 21.2 °F 5.6 °F 1.4 °F 42% 30.21 in 10.0 mi NNE 20.7 mph 26.5 mph N/A   Overcast
6:15 AM 21.2 °F 6.4 °F -0.4 °F 39% 30.21 in 10.0 mi NNE 18.4 mph 23.0 mph N/A   Scattered Clouds
6:35 AM 21.2 °F 7.8 °F -0.4 °F 39% 30.23 in 10.0 mi North 15.0 mph 23.0 mph N/A   Clear
6:55 AM 21.2 °F 6.4 °F -2.2 °F 36% 30.23 in 10.0 mi North 18.4 mph 25.3 mph N/A   Mostly Cloudy
7:15 AM 19.4 °F 7.9 °F 1.4 °F 46% 30.25 in 10.0 mi North 10.4 mph 21.9 mph N/A   Overcast
7:35 AM 19.4 °F 4.5 °F 1.4 °F 46% 30.25 in 10.0 mi North 17.3 mph - N/A   Overcast
7:55 AM 19.4 °F 5.0 °F 1.4 °F 46% 30.26 in 10.0 mi North 16.1 mph 24.2 mph N/A   Overcast
8:15 AM 19.4 °F 4.5 °F 1.4 °F 46% 30.28 in 10.0 mi North 17.3 mph 25.3 mph N/A   Overcast
8:35 AM 19.4 °F 5.5 °F -2.2 °F 39% 30.29 in 10.0 mi NNE 15.0 mph 23.0 mph N/A   Overcast
8:55 AM 17.6 °F 3.2 °F -2.2 °F 42% 30.31 in 10.0 mi NNE 15.0 mph 19.6 mph N/A   Overcast
9:15 AM 19.4 °F 3.6 °F -0.4 °F 42% 30.32 in 10.0 mi NNE 19.6 mph - N/A   Mostly Cloudy
9:35 AM 19.4 °F 5.0 °F -0.4 °F 42% 30.33 in 10.0 mi NNE 16.1 mph - N/A   Partly Cloudy
9:55 AM 17.6 °F 2.2 °F -2.2 °F 42% 30.34 in 10.0 mi North 17.3 mph - N/A   Clear
10:15 AM 17.6 °F 1.7 °F -4.0 °F 38% 30.36 in 10.0 mi North 18.4 mph 25.3 mph N/A   Scattered Clouds
10:35 AM 15.8 °F -1.9 °F -11.2 °F 30% 30.36 in 10.0 mi North 21.9 mph 26.5 mph N/A   Scattered Clouds
10:55 AM 15.8 °F 0.9 °F -11.2 °F 30% 30.37 in 10.0 mi NNE 15.0 mph - N/A   Scattered Clouds
11:15 AM 15.8 °F 0.9 °F -9.4 °F 32% 30.36 in 10.0 mi NNE 15.0 mph 18.4 mph N/A   Mostly Cloudy
11:35 AM 17.6 °F 4.3 °F -9.4 °F 30% 30.36 in 10.0 mi North 12.7 mph - N/A   Mostly Cloudy
11:55 AM 17.6 °F 3.2 °F -7.6 °F 32% 30.36 in 10.0 mi North 15.0 mph 18.4 mph N/A   Partly Cloudy
12:15 PM 17.6 °F 3.7 °F -7.6 °F 32% 30.36 in 10.0 mi North 13.8 mph 19.6 mph N/A   Scattered Clouds
12:35 PM 17.6 °F 3.2 °F -9.4 °F 30% 30.34 in 10.0 mi North 15.0 mph - N/A   Partly Cloudy
12:55 PM 17.6 °F 3.2 °F -7.6 °F 32% 30.34 in 10.0 mi North 15.0 mph 19.6 mph N/A   Mostly Cloudy
1:15 PM 17.6 °F 3.2 °F -7.6 °F 32% 30.34 in 10.0 mi North 15.0 mph - N/A   Scattered Clouds
1:35 PM 17.6 °F 4.3 °F -9.4 °F 30% 30.33 in 10.0 mi North 12.7 mph - N/A   Scattered Clouds
1:55 PM 17.6 °F 4.3 °F -7.6 °F 32% 30.32 in 10.0 mi North 12.7 mph 18.4 mph N/A   Mostly Cloudy
2:15 PM 17.6 °F 3.7 °F -5.8 °F 35% 30.31 in 10.0 mi North 13.8 mph 17.3 mph N/A   Overcast
2:35 PM 17.6 °F 3.7 °F -5.8 °F 35% 30.32 in 10.0 mi North 13.8 mph 17.3 mph N/A   Overcast
2:55 PM 17.6 °F 7.3 °F -7.6 °F 32% 30.31 in 10.0 mi NNE 8.1 mph - N/A   Overcast
3:15 PM 17.6 °F 3.7 °F -5.8 °F 35% 30.32 in 10.0 mi North 13.8 mph - N/A   Overcast
3:35 PM 19.4 °F 6.0 °F -5.8 °F 33% 30.31 in 10.0 mi North 13.8 mph - N/A   Overcast
3:55 PM 17.6 °F 5.0 °F -7.6 °F 32% 30.32 in 10.0 mi NNE 11.5 mph - N/A   Scattered Clouds
4:15 PM 17.6 °F 3.7 °F -7.6 °F 32% 30.33 in 10.0 mi North 13.8 mph - N/A   Partly Cloudy
4:35 PM 17.6 °F 5.0 °F -7.6 °F 32% 30.33 in 10.0 mi NNE 11.5 mph - N/A   Scattered Clouds
4:55 PM 17.6 °F 3.7 °F -7.6 °F 32% 30.34 in 10.0 mi North 13.8 mph - N/A   Mostly Cloudy
5:15 PM 17.6 °F 4.3 °F -7.6 °F 32% 30.34 in 10.0 mi North 12.7 mph 16.1 mph N/A   Overcast
5:35 PM 17.6 °F 5.0 °F -7.6 °F 32% 30.34 in 10.0 mi North 11.5 mph - N/A   Overcast
5:55 PM 17.6 °F 7.3 °F -5.8 °F 35% 30.34 in 10.0 mi NNE 8.1 mph - N/A   Scattered Clouds
6:15 PM 17.6 °F 4.3 °F -5.8 °F 35% 30.34 in 10.0 mi NNE 12.7 mph - N/A   Partly Cloudy
6:35 PM 15.8 °F 1.4 °F -7.6 °F 35% 30.33 in 10.0 mi NNE 13.8 mph - N/A   Mostly Cloudy
6:55 PM 15.8 °F 2.1 °F -5.8 °F 38% 30.34 in 10.0 mi North 12.7 mph - N/A   Mostly Cloudy
7:15 PM 15.8 °F 2.7 °F -5.8 °F 38% 30.34 in 10.0 mi NNE 11.5 mph - N/A   Clear
7:35 PM 17.6 °F 3.7 °F -7.6 °F 32% 30.35 in 10.0 mi North 13.8 mph - N/A   Mostly Cloudy
7:55 PM 17.6 °F 4.3 °F -5.8 °F 35% 30.35 in 10.0 mi NNE 12.7 mph - N/A   Overcast
8:15 PM 15.8 °F 1.4 °F -5.8 °F 38% 30.34 in 10.0 mi NNE 13.8 mph - N/A   Overcast
8:35 PM 15.8 °F 2.1 °F -5.8 °F 38% 30.34 in 10.0 mi NNE 12.7 mph - N/A   Overcast
8:55 PM 15.8 °F 2.7 °F -5.8 °F 38% 30.36 in 10.0 mi NNE 11.5 mph - N/A   Mostly Cloudy
9:15 PM 15.8 °F 3.4 °F -5.8 °F 38% 30.36 in 10.0 mi NNE 10.4 mph - N/A   Partly Cloudy
9:35 PM 15.8 °F 5.1 °F -7.6 °F 35% 30.36 in 10.0 mi NE 8.1 mph - N/A   Clear
9:55 PM 15.8 °F 6.1 °F -5.8 °F 38% 30.37 in 10.0 mi NNE 6.9 mph - N/A   Clear
10:15 PM 15.8 °F 4.2 °F -5.8 °F 38% 30.37 in 10.0 mi NNE 9.2 mph - N/A   Clear
10:35 PM 15.8 °F 4.2 °F -5.8 °F 38% 30.38 in 10.0 mi NE 9.2 mph - N/A   Clear
10:55 PM 15.8 °F 3.4 °F -5.8 °F 38% 30.38 in 10.0 mi NNE 10.4 mph - N/A   Scattered Clouds
11:15 PM 15.8 °F 2.1 °F -5.8 °F 38% 30.37 in 10.0 mi NE 12.7 mph - N/A   Mostly Cloudy
11:35 PM 15.8 °F 2.7 °F -5.8 °F 38% 30.38 in 10.0 mi NE 11.5 mph - N/A   Mostly Cloudy
11:55 PM 15.8 °F 3.4 °F -5.8 °F 38% 30.38 in 10.0 mi NNE 10.4 mph - N/A   Scattered Clouds